Location: Alafon
(8.4500°N, 4.2333°E)
Time: 01:32:42
(UTC+00:00)

SL-08 ROCKET BODY - Pass Details

Date: 05 July 2020
Orbit: 897 x 962 km, 82.9° (Epoch: 06 August)

Event Time Altitude Azimuth Distance (km) Brightness Sun altitude
Exits shadow 19:51:36 52° 87° (E) 1,117 4.4 -24.4°
Drops below altitude 10° 19:57:09 10° 17° (NNE) 2,599 6.9 -25.6°
Sets 19:59:41 0° 13° (NNE) 3,550 7.7 -26.1°
